N3TCR-13 Weather Reports


time (UTC)temp
C
wind
direction
speed
KPH
gust
KPH
rain 1hr
cm
rain 24hr
cm
rain mn
cm
humidity
%
barometer
mb
20260507130016 11 343 1.6 4.8 0.00 0.41 0.00 84 997.3
20260507124517 11 329 0.0 3.2 0.00 0.43 0.00 94 997.2
20260507123137 11 343 0.0 3.2 0.00 0.48 0.00 96 997.2
20260507121517 10 341 1.6 4.8 0.00 0.56 0.00 97 997.1
20260507120017 10 339 1.6 3.2 0.00 0.61 0.00 100 997.0
20260507114517 10 345 0.0 1.6 0.00 0.64 0.00 100 997.1
20260507113017 10 30 0.0 1.6 0.00 0.64 0.00 100 997.1
20260507111517 10 0.0 0.0 0.00 0.64 0.00 100 997.0
20260507110017 10 313 0.0 0.0 0.00 0.64 0.00 100 996.8
20260507104538 10 321 0.0 1.6 0.00 0.64 0.00 100 996.6
20260507103037 10 327 0.0 1.6 0.00 0.64 0.00 100 996.5
20260507101517 10 330 0.0 3.2 0.00 0.64 0.00 100 996.3
20260507100017 10 330 0.0 1.6 0.00 0.64 0.00 100 996.0
20260507094517 10 324 1.6 4.8 0.00 0.64 0.00 100 996.0
20260507093018 10 326 1.6 3.2 0.00 0.64 0.00 100 996.1
20260507091518 10 338 1.6 3.2 0.00 0.64 0.00 100 996.1
20260507090021 10 334 1.6 3.2 0.00 0.64 0.00 100 995.9
20260507084521 11 344 1.6 3.2 0.00 0.64 0.00 100 995.8
20260507083058 11 329 1.6 4.8 0.00 0.64 0.00 100 995.7
20260507081516 11 332 1.6 3.2 0.00 0.64 0.00 100 995.4
20260507080017 11 321 1.6 6.4 0.00 0.64 0.00 100 995.4
20260507074517 11 329 1.6 4.8 0.00 0.64 0.00 100 995.4
20260507073017 11 331 1.6 3.2 0.00 0.64 0.00 100 995.3
20260507071517 11 338 0.0 3.2 0.00 0.64 0.00 100 995.4
20260507070016 11 349 1.6 6.4 0.00 0.64 0.00 100 995.8
20260507064516 11 332 1.6 6.4 0.00 0.64 0.00 100 995.5
20260507063017 12 337 1.6 6.4 0.00 0.64 0.00 100 995.7
20260507061517 12 326 1.6 4.8 0.00 0.64 0.00 100 995.8
20260507060017 12 334 1.6 4.8 0.00 0.64 0.00 100 995.6
20260507054517 12 333 1.6 4.8 0.00 0.64 0.00 100 995.5
20260507053017 12 341 3.2 6.4 0.00 0.64 0.00 100 995.5
20260507051517 12 339 1.6 3.2 0.00 0.64 0.00 100 995.5
20260507050039 12 347 1.6 3.2 0.00 0.64 0.00 100 995.4
20260507044537 12 322 0.0 1.6 0.00 0.64 0.00 100 995.8
20260507043038 12 333 1.6 3.2 0.03 0.64 0.00 100 995.4
20260507041518 13 348 1.6 3.2 0.03 0.64 0.00 100 995.0
20260507040037 13 357 1.6 6.4 0.03 0.64 0.00 100 995.1
20260507034516 13 339 1.6 8.0 0.03 0.64 0.64 100 995.1
20260507033036 13 341 1.6 6.4 0.00 0.61 0.61 100 994.8
20260507031516 14 338 1.6 4.8 0.00 0.61 0.61 100 994.8
20260507030017 14 331 1.6 4.8 0.00 0.61 0.61 100 994.8
20260507024537 14 343 1.6 6.4 0.00 0.61 0.61 100 994.6
20260507023017 14 351 1.6 6.4 0.00 0.61 0.61 100 994.7
20260507021517 15 355 1.6 3.2 0.00 0.61 0.61 100 994.6
20260507020018 15 334 1.6 4.8 0.00 0.61 0.61 100 994.6
20260507014522 15 340 1.6 8.0 0.00 0.61 0.61 100 994.3
20260507013020 16 342 0.0 6.4 0.00 0.61 0.61 100 994.5
20260507011517 16 359 1.6 9.7 0.03 0.61 0.61 100 994.7
20260507010017 16 347 1.6 9.7 0.03 0.61 0.61 100 994.5
20260507004517 16 352 0.0 3.2 0.03 0.61 0.61 100 994.4
20260507003017 17 198 0.0 1.6 0.05 0.61 0.61 100 994.2
20260507001517 17 38 0.0 3.2 0.03 0.58 0.58 100 994.0
20260507000017 17 38 0.0 1.6 0.03 0.58 0.58 100 993.8
20260506234517 18 5 1.6 4.8 0.03 0.58 0.58 100 993.4
20260506233017 19 11 0.0 1.6 0.00 0.56 0.56 100 993.2
20260506231517 19 66 1.6 3.2 0.00 0.56 0.56 100 993.0
20260506230017 20 51 0.0 3.2 0.00 0.56 0.56 100 993.0
20260506224516 20 49 1.6 6.4 0.00 0.56 0.56 100 993.1
20260506223041 20 51 1.6 6.4 0.00 0.56 0.56 100 993.0
20260506221517 20 72 1.6 6.4 0.00 0.56 0.56 100 992.9
20260506220017 19 64 1.6 6.4 0.00 0.56 0.56 100 993.1
20260506214516 19 58 1.6 6.4 0.00 0.56 0.56 100 993.0
20260506213017 19 61 1.6 3.2 0.00 0.56 0.56 100 992.8
20260506211517 19 65 1.6 3.2 0.00 0.56 0.56 100 992.7
20260506210017 19 47 1.6 6.4 0.00 0.56 0.56 100 992.5
20260506204517 19 65 1.6 4.8 0.00 0.56 0.56 100 992.4
20260506203016 19 305 0.0 3.2 0.00 0.56 0.56 100 992.6
20260506201517 19 24 1.6 4.8 0.00 0.56 0.56 100 992.7
20260506200017 19 49 1.6 8.0 0.00 0.56 0.56 100 992.7
20260506194537 20 54 3.2 9.7 0.00 0.56 0.56 100 992.7
20260506193017 20 3 1.6 6.4 0.00 0.56 0.56 100 992.7
20260506191537 19 45 1.6 6.4 0.00 0.56 0.56 100 992.7
20260506190018 19 45 3.2 11.3 0.00 0.56 0.56 100 992.9
20260506184517 19 49 3.2 11.3 0.00 0.56 0.56 100 993.1
20260506183017 18 39 3.2 12.9 0.00 0.56 0.56 100 993.1
20260506181519 18 46 3.2 12.9 0.00 0.56 0.56 100 993.1
20260506180016 18 48 4.8 20.9 0.00 0.56 0.56 100 993.3
20260506174516 17 57 3.2 9.7 0.00 0.56 0.56 100 993.3
20260506173016 17 51 4.8 12.9 0.00 0.56 0.56 100 993.2
20260506171517 17 50 4.8 14.5 0.00 0.56 0.56 100 993.3
20260506170017 16 53 4.8 14.5 0.00 0.56 0.56 100 993.3
20260506164516 16 39 4.8 14.5 0.00 0.56 0.56 100 993.2
20260506163016 16 49 4.8 14.5 0.00 0.56 0.56 100 993.3
20260506161517 15 47 4.8 17.7 0.00 0.56 0.56 100 993.3
20260506160016 15 51 4.8 12.9 0.00 0.56 0.56 100 993.5
20260506154517 16 61 4.8 12.9 0.00 0.56 0.56 100 993.4
20260506153017 15 60 4.8 19.3 0.10 0.56 0.56 100 993.3
20260506151517 15 51 6.4 17.7 0.13 0.56 0.56 100 993.5
20260506150037 15 63 4.8 11.3 0.15 0.56 0.56 100 993.7
20260506144537 15 79 6.4 14.5 0.18 0.56 0.56 100 994.0
20260506143017 15 73 6.4 17.7 0.13 0.46 0.46 100 994.0
20260506141517 15 86 4.8 14.5 0.15 0.43 0.43 100 993.7
20260506140017 15 72 4.8 16.1 0.18 0.41 0.41 100 993.9
20260506134517 15 83 4.8 11.3 0.18 0.38 0.38 100 993.9
20260506133019 15 49 4.8 11.3 0.18 0.33 0.33 100 994.4
20260506131521 15 80 4.8 11.3 0.20 0.28 0.28 100 994.4